Regional Weather Roundup
Issued by NWS

Home | Current Version | Previous Version | Graphics & Text | Print | Product List | Glossary On
Versions: 1 2 3 4 5 6 7 8 9 10 11 12 13 14 15 16 17 18 19 20 21 22 23 24 25 26 27 28 29 30 31 32 33 34 35 36 37 38 39 40 41 42 43 44 45 46 47 48 49 50
000
ASUS43 KLMK 131410
RWRKY
KENTUCKY REGIONAL WEATHER ROUNDUP
NATIONAL WEATHER SERVICE LOUISVILLE KY
900 AM EST WED DEC 13 2017

NOTE "FAIR" INDICATES FEW OR NO CLOUDS BELOW 12,000 FEET
WITH NO SIGNIFICANT WEATHER AND/OR OBSTRUCTIONS TO VISIBILITY.

KYZ001>023-026-027-061>063-070>075-131500-
WESTERN AND SOUTH CENTRAL KENTUCKY

CITY           SKY/WX    TMP DP  RH WIND       PRES   REMARKS
PADUCAH        CLEAR     31  13  47 S7        29.90F WCI  24
HENDERSON      CLEAR     29  17  61 S16       29.89F WCI  17
OWENSBORO      PTCLDY    27  17  66 S13       29.91F WCI  16
HOPKINSVILLE   SUNNY     30  11  45 S10       29.96F WCI  21
BOWLING GREEN  SUNNY     27  13  55 S8        29.99F WCI  19
GLASGOW        CLOUDY    25  14  63 S6        29.98S WCI  18
$$

KYZ024-025-028>034-038-045-046-053-131500-
NORTH CENTRAL KENTUCKY

CITY           SKY/WX    TMP DP  RH WIND       PRES   REMARKS
LOUISVILLE/SDF SUNNY     27   9  46 S10       29.93F WCI  17
LOUISVILLE/LOU SUNNY     24  12  60 S10       29.94F WCI  14
FORT KNOX      CLOUDY    23  12  63 S7        29.91F WCI  15
$$

KYZ035>037-039>044-047>052-055>060-089>105-131500-
NORTHEAST KENTUCKY

CITY           SKY/WX    TMP DP  RH WIND       PRES   REMARKS
LEXINGTON      SUNNY     22  11  62 S8        29.93F WCI  12
COVINGTON      CLOUDY    22  12  65 S12       29.88F WCI  10
FRANKFORT      CLOUDY    22   9  57 S10       29.92F WCI  11
$$

KYZ054-064>069-076>088-106>120-131500-
SOUTHEAST KENTUCKY

CITY           SKY/WX    TMP DP  RH WIND       PRES   REMARKS
JACKSON        CLOUDY    21  10  62 S7        29.94F WCI  12
LONDON         SUNNY     22  10  60 S7        29.97F WCI  13
SOMERSET       SUNNY     23  12  63 S7        30.00F WCI  15
MIDDLESBORO    CLOUDY    20  12  72 CALM      30.02S
MONTICELLO     SUNNY     28  18  66 NE8       30.01F WCI  20
$$





USA.gov is the U.S. government's official web portal to all federal, state and local government web resources and services.